OBJECT D, 64061

Orbit data source: Space-Track

You're viewing an Uncataloged Satellite

Recently launched and/or uncataloged satellites may have evolving metadata. Metadata may include but not limited to: Owner, Maufacturer, Bus, Motor, and Mission.

OBJECT D, 64061 is a satellite owned by Guodian Gaokeji (CN) in LEO that was launched on Mon, 19 May 2025 UTC via a GUSHENXING 1 launch vehicle from the Yellow Sea Launch Area, China (YSLA). Unknown objects in Earth's orbit typically refer to objects detected orbiting the Earth but have not yet been identified or cataloged. These objects could be anything from previously untracked satellites, spent rocket stages, debris from satellite collisions, or even natural meteoroids temporarily captured by Earth's gravity.

Loading next visibility...
Identifier
64061, 2025-105D
Orbit
LEO
Last TLE update
3 days ago
Origin
Flag of CNGUOG (CN / PRC)
Manufacturer
Shanghai ASES
Mission
Operational spacecraft
Bus & Motor
STARLIGHTB, Unknown motor
Mass
40 kg wet, ~40 kg dry
Launch date (UTC)
2025-05-19 (1 month ago)
Launch vehicle
GUSHENXING 1
Launch site
Yellow Sea Launch Area, China (YSLA)
Object type
Unknown
Shape & HBR
Unknown
Radar Cross Section
Medium (>0.1 m² and <1 m²)

Expand to show TLE details & history

TLE from 3 days ago
0 OBJECT D
1 64061U 25105D   25167.56645288  .00000029  00000-0  88362-4 0  9997
2 64061  44.9839 208.6842 0010668 105.3783 254.8234 14.11755194  4004
Epoch: 2025-06-16T13:35Z
TLE epoch observation values (Epoch: 2025-06-16T13:35:41.528Z)
Latitude
-0.00003°
Longitude
99.68578°
Altitude
855.396 km
Speed
7.425 km/s
True Right ascension
13h 54m 44s
True Declination
0° 00' 00"
Sunlit
Object was in full shadow at epoch
Visualization orbit readout
Latitude
-40.78434°
Longitude
-33.59167°
Altitude
870.828 km
Speed
7.415 km/s
Apparent Right ascension
05h 33m 08s
Apparent Declination
-40° 30' 05"
Sunlit
Object is in daylight
Visualization observer readout
Local Sidereal Time
18:08:31
Azimuth
97.802° ESE
Elevation
-83.222°
Doppler factor
1
Orbital elements
Apogee altitude
862.618 km
Perigee altitude
847.185 km
Semi-major axis
7,233.038 km
Eccentricity
0.00107
Inclination
44.9839°
RAAN
208.6842°
Arg. of periapsis
105.3783°
True anomaly
Unknown
Mean anomaly
254.8234°
Eccentric anomaly
Unknown
Mean motion
3.52827 °/min
Orbital period
102.03 mins
BSTAR
0.000088362
Loading maneuver chart data...
Loading SW <> Apogee altitude chart data...
Loading historical data...
Loading historical data...
Loading historical data...
Loading historical data...
Loading historical data...
Loading historical data...
Loading historical data...
Other satellites on launch #105 in the year 2025 (2025-05-19 UTC)

OBJECT D Visibility forecast

Observer location: undefined°, undefined°

Span
Click to sort rows by Start time (UTC) header in descending order
Start Az.
Max El. time (UTC)
Max El. Az.
Max El.
End time (UTC)
End Az.
11 mins2025-06-19 08:09:53.899Z284.13° WNW2025-06-19 08:15:53.899Z15.161° NNE37.717°2025-06-19 08:20:53.899Z76.051° E
10 mins2025-06-19 09:58:53.899Z295.469° NW2025-06-19 10:02:53.899Z343.939° N43.891°2025-06-19 10:08:53.899Z106.897° ESE
8 mins2025-06-19 11:46:53.899Z271.959° WNW2025-06-19 11:49:53.899Z226.043° WSW30.78°2025-06-19 11:54:53.899Z155.143° SSE
9 mins2025-06-20 04:23:53.899Z206.577° SW2025-06-20 04:27:53.899Z139.511° SSE34.375°2025-06-20 04:32:53.899Z75.449° E
9 mins2025-06-20 06:10:53.899Z260.909° W2025-06-20 06:14:53.899Z344.602° N43.379°2025-06-20 06:19:53.899Z65.248° ENE
|